Year,Month,Day,Hour,Minute,Value (Times are PST for barometer in hPa)
2011,11,22,00,00,988.76
2011,11,22,00,01,988.72
2011,11,22,00,02,988.76
2011,11,22,00,03,988.69
2011,11,22,00,04,988.69
2011,11,22,00,05,988.62
2011,11,22,00,06,988.62
2011,11,22,00,07,988.55
2011,11,22,00,08,988.55
2011,11,22,00,09,988.52
2011,11,22,00,10,988.49
2011,11,22,00,11,988.49
2011,11,22,00,12,988.49
2011,11,22,00,13,988.42
2011,11,22,00,14,988.42
2011,11,22,00,15,988.35
2011,11,22,00,16,988.32
2011,11,22,00,17,988.32
2011,11,22,00,18,988.32
2011,11,22,00,19,988.28
2011,11,22,00,20,988.32
2011,11,22,00,21,988.32
2011,11,22,00,22,988.35
2011,11,22,00,23,988.32
2011,11,22,00,24,988.25
2011,11,22,00,25,988.28
2011,11,22,00,26,988.28
2011,11,22,00,27,988.22
2011,11,22,00,28,988.22
2011,11,22,00,29,988.11
2011,11,22,00,30,988.08
2011,11,22,00,31,988.05
2011,11,22,00,32,988.05
2011,11,22,00,33,988.01
2011,11,22,00,34,988.01
2011,11,22,00,35,988.08
2011,11,22,00,36,987.91
2011,11,22,00,37,987.84
2011,11,22,00,38,987.84
2011,11,22,00,39,987.84
2011,11,22,00,40,987.74
2011,11,22,00,41,987.81
2011,11,22,00,42,987.78
2011,11,22,00,43,987.71
2011,11,22,00,44,987.71
2011,11,22,00,45,987.78
2011,11,22,00,46,987.74
2011,11,22,00,47,987.67
2011,11,22,00,48,987.61
2011,11,22,00,49,987.57
2011,11,22,00,50,987.54
2011,11,22,00,51,987.60
2011,11,22,00,52,987.51
2011,11,22,00,53,987.44
2011,11,22,00,54,987.40
2011,11,22,00,55,987.37
2011,11,22,00,56,987.40
2011,11,22,00,57,987.30
2011,11,22,00,58,987.34
2011,11,22,00,59,987.30
2011,11,22,01,00,987.27
2011,11,22,01,01,987.10
2011,11,22,01,02,987.00
2011,11,22,01,03,987.06
2011,11,22,01,04,987.05
2011,11,22,01,05,986.93
2011,11,22,01,06,986.96
2011,11,22,01,07,986.93
2011,11,22,01,08,986.90
2011,11,22,01,09,986.86
2011,11,22,01,10,986.93
2011,11,22,01,11,986.83
2011,11,22,01,12,986.73
2011,11,22,01,13,986.79
2011,11,22,01,14,986.79
2011,11,22,01,15,986.73
2011,11,22,01,16,986.66
2011,11,22,01,17,986.62
2011,11,22,01,18,986.59
2011,11,22,01,19,986.62
2011,11,22,01,20,986.52
2011,11,22,01,21,986.62
2011,11,22,01,22,986.52
2011,11,22,01,23,986.46
2011,11,22,01,24,986.49
2011,11,22,01,25,986.35
2011,11,22,01,26,986.46
2011,11,22,01,27,986.39
2011,11,22,01,28,986.32
2011,11,22,01,29,986.25
2011,11,22,01,30,986.22
2011,11,22,01,31,986.15
2011,11,22,01,32,986.18
2011,11,22,01,33,986.15
2011,11,22,01,34,986.12
2011,11,22,01,35,986.08
2011,11,22,01,36,985.89
2011,11,22,01,37,985.85
2011,11,22,01,38,985.88
2011,11,22,01,39,985.85
2011,11,22,01,40,985.91
2011,11,22,01,41,985.74
2011,11,22,01,42,985.85
2011,11,22,01,43,985.78
2011,11,22,01,44,985.78
2011,11,22,01,45,985.78
2011,11,22,01,46,985.74
2011,11,22,01,47,985.71
2011,11,22,01,48,985.78
2011,11,22,01,49,985.64
2011,11,22,01,50,985.47
2011,11,22,01,51,985.54
2011,11,22,01,52,985.64
2011,11,22,01,53,985.64
2011,11,22,01,54,985.54
2011,11,22,01,55,985.61
2011,11,22,01,56,985.54
2011,11,22,01,57,985.64
2011,11,22,01,58,985.71
2011,11,22,01,59,985.57
2011,11,22,02,00,985.54
2011,11,22,02,01,985.54
2011,11,22,02,02,985.61
2011,11,22,02,03,985.54
2011,11,22,02,04,985.44
2011,11,22,02,05,985.54
2011,11,22,02,06,985.51
2011,11,22,02,07,985.57
2011,11,22,02,08,985.57
2011,11,22,02,09,985.61
2011,11,22,02,10,985.64
2011,11,22,02,11,985.61
2011,11,22,02,12,985.71
2011,11,22,02,13,985.74
2011,11,22,02,14,985.74
2011,11,22,02,15,985.71
2011,11,22,02,16,985.78
2011,11,22,02,17,985.81
2011,11,22,02,18,985.91
2011,11,22,02,19,986.12
2011,11,22,02,20,986.18
2011,11,22,02,21,986.25
2011,11,22,02,22,986.25
2011,11,22,02,23,986.32
2011,11,22,02,24,986.42
2011,11,22,02,25,986.42
2011,11,22,02,26,986.46
2011,11,22,02,27,986.49
2011,11,22,02,28,986.69
2011,11,22,02,29,986.78
2011,11,22,02,30,986.90
2011,11,22,02,31,986.86
2011,11,22,02,32,986.56
2011,11,22,02,33,986.56
2011,11,22,02,34,986.46
2011,11,22,02,35,986.49
2011,11,22,02,36,986.86
2011,11,22,02,37,987.06
2011,11,22,02,38,987.20
2011,11,22,02,39,987.37
2011,11,22,02,40,987.17
2011,11,22,02,41,987.20
2011,11,22,02,42,987.17
2011,11,22,02,43,987.13
2011,11,22,02,44,987.17
2011,11,22,02,45,987.17
2011,11,22,02,46,987.20
2011,11,22,02,47,987.23
2011,11,22,02,48,987.23
2011,11,22,02,49,987.40
2011,11,22,02,50,987.47
2011,11,22,02,51,987.57
2011,11,22,02,52,987.64
2011,11,22,02,53,987.74
2011,11,22,02,54,987.78
2011,11,22,02,55,987.84
2011,11,22,02,56,987.95
2011,11,22,02,57,988.08
2011,11,22,02,58,988.15
2011,11,22,02,59,988.22
2011,11,22,03,00,988.39
2011,11,22,03,01,988.35
2011,11,22,03,02,988.42
2011,11,22,03,03,988.49
2011,11,22,03,04,988.62
2011,11,22,03,05,988.62
2011,11,22,03,06,988.72
2011,11,22,03,07,988.83
2011,11,22,03,08,988.89
2011,11,22,03,09,988.93
2011,11,22,03,10,988.93
2011,11,22,03,11,988.83
2011,11,22,03,12,988.83
2011,11,22,03,13,988.86
2011,11,22,03,14,988.86
2011,11,22,03,15,988.85
2011,11,22,03,16,988.72
2011,11,22,03,17,988.59
2011,11,22,03,18,988.62
2011,11,22,03,19,988.69
2011,11,22,03,20,988.69
2011,11,22,03,21,988.62
2011,11,22,03,22,988.66
2011,11,22,03,23,988.69
2011,11,22,03,24,988.55
2011,11,22,03,25,988.52
2011,11,22,03,26,988.59
2011,11,22,03,27,988.66
2011,11,22,03,28,988.79
2011,11,22,03,29,989.00
2011,11,22,03,30,989.16
2011,11,22,03,31,989.20
2011,11,22,03,32,989.10
2011,11,22,03,33,989.06
2011,11,22,03,34,989.00
2011,11,22,03,35,989.00
2011,11,22,03,36,989.00
2011,11,22,03,37,989.03
2011,11,22,03,38,989.03
2011,11,22,03,39,988.96
2011,11,22,03,40,989.03
2011,11,22,03,41,989.06
2011,11,22,03,42,989.16
2011,11,22,03,43,989.11
2011,11,22,03,44,989.23
2011,11,22,03,45,989.23
2011,11,22,03,46,989.23
2011,11,22,03,47,989.30
2011,11,22,03,48,989.40
2011,11,22,03,49,989.47
2011,11,22,03,50,989.37
2011,11,22,03,51,989.37
2011,11,22,03,52,989.37
2011,11,22,03,53,989.37
2011,11,22,03,54,989.50
2011,11,22,03,55,989.57
2011,11,22,03,56,989.60
2011,11,22,03,57,989.60
2011,11,22,03,58,989.47
2011,11,22,03,59,989.40
2011,11,22,04,00,989.40
2011,11,22,04,01,989.44
2011,11,22,04,02,989.40
2011,11,22,04,03,989.40
2011,11,22,04,04,989.44
2011,11,22,04,05,989.40
2011,11,22,04,06,989.54
2011,11,22,04,07,989.54
2011,11,22,04,08,989.50
2011,11,22,04,09,989.50
2011,11,22,04,10,989.54
2011,11,22,04,11,989.60
2011,11,22,04,12,989.71
2011,11,22,04,13,989.77
2011,11,22,04,14,989.67
2011,11,22,04,15,989.67
2011,11,22,04,16,989.77
2011,11,22,04,17,989.77
2011,11,22,04,18,989.81
2011,11,22,04,19,989.77
2011,11,22,04,20,989.71
2011,11,22,04,21,989.67
2011,11,22,04,22,989.74
2011,11,22,04,23,989.91
2011,11,22,04,24,989.98
2011,11,22,04,25,989.84
2011,11,22,04,26,989.77
2011,11,22,04,27,989.71
2011,11,22,04,28,989.71
2011,11,22,04,29,989.71
2011,11,22,04,30,989.78
2011,11,22,04,31,989.88
2011,11,22,04,32,989.91
2011,11,22,04,33,989.91
2011,11,22,04,34,989.91
2011,11,22,04,35,989.91
2011,11,22,04,36,989.91
2011,11,22,04,37,990.01
2011,11,22,04,38,990.04
2011,11,22,04,39,990.01
2011,11,22,04,40,990.08
2011,11,22,04,41,990.11
2011,11,22,04,42,990.15
2011,11,22,04,43,990.18
2011,11,22,04,44,990.28
2011,11,22,04,45,990.25
2011,11,22,04,46,990.26
2011,11,22,04,47,990.35
2011,11,22,04,48,990.27
2011,11,22,04,49,990.08
2011,11,22,04,50,990.01
2011,11,22,04,51,990.21
2011,11,22,04,52,990.48
2011,11,22,04,53,990.65
2011,11,22,04,54,990.72
2011,11,22,04,55,990.62
2011,11,22,04,56,990.55
2011,11,22,04,57,990.65
2011,11,22,04,58,990.41
2011,11,22,04,59,990.29
2011,11,22,05,00,990.49
2011,11,22,05,01,990.52
2011,11,22,05,02,990.45
2011,11,22,05,03,990.52
2011,11,22,05,04,990.52
2011,11,22,05,05,990.49
2011,11,22,05,06,990.42
2011,11,22,05,07,990.53
2011,11,22,05,08,990.69
2011,11,22,05,09,990.86
2011,11,22,05,10,990.89
2011,11,22,05,11,990.89
2011,11,22,05,12,990.96
2011,11,22,05,13,990.95
2011,11,22,05,14,990.82
2011,11,22,05,15,990.72
2011,11,22,05,16,990.62
2011,11,22,05,17,990.49
2011,11,22,05,18,990.42
2011,11,22,05,19,990.35
2011,11,22,05,20,990.28
2011,11,22,05,21,990.32
2011,11,22,05,22,990.32
2011,11,22,05,23,990.52
2011,11,22,05,24,990.59
2011,11,22,05,25,990.59
2011,11,22,05,26,990.45
2011,11,22,05,27,990.49
2011,11,22,05,28,990.52
2011,11,22,05,29,990.59
2011,11,22,05,30,990.76
2011,11,22,05,31,990.96
2011,11,22,05,32,990.99
2011,11,22,05,33,990.99
2011,11,22,05,34,990.99
2011,11,22,05,35,991.03
2011,11,22,05,36,990.89
2011,11,22,05,37,990.80
2011,11,22,05,38,990.96
2011,11,22,05,39,990.93
2011,11,22,05,40,991.04
2011,11,22,05,41,991.20
2011,11,22,05,42,991.26
2011,11,22,05,43,991.26
2011,11,22,05,44,991.30
2011,11,22,05,45,991.40
2011,11,22,05,46,991.50
2011,11,22,05,47,991.59
2011,11,22,05,48,991.67
2011,11,22,05,49,991.67
2011,11,22,05,50,991.64
2011,11,22,05,51,991.70
2011,11,22,05,52,991.67
2011,11,22,05,53,991.70
2011,11,22,05,54,991.77
2011,11,22,05,55,991.84
2011,11,22,05,56,991.84
2011,11,22,05,57,991.77
2011,11,22,05,58,991.87
2011,11,22,05,59,991.84
2011,11,22,06,00,991.91
2011,11,22,06,01,991.98
2011,11,22,06,02,992.01
2011,11,22,06,03,992.11
2011,11,22,06,04,992.18
2011,11,22,06,05,992.25
2011,11,22,06,06,992.25
2011,11,22,06,07,992.28
2011,11,22,06,08,992.31
2011,11,22,06,09,992.42
2011,11,22,06,10,992.48
2011,11,22,06,11,992.55
2011,11,22,06,12,992.48
2011,11,22,06,13,992.52
2011,11,22,06,14,992.52
2011,11,22,06,15,992.58
2011,11,22,06,16,992.62
2011,11,22,06,17,992.62
2011,11,22,06,18,992.62
2011,11,22,06,19,992.65
2011,11,22,06,20,992.69
2011,11,22,06,21,992.62
2011,11,22,06,22,992.65
2011,11,22,06,23,992.65
2011,11,22,06,24,992.65
2011,11,22,06,25,992.69
2011,11,22,06,26,992.72
2011,11,22,06,27,992.75
2011,11,22,06,28,992.79
2011,11,22,06,29,992.86
2011,11,22,06,30,992.89
2011,11,22,06,31,993.02
2011,11,22,06,32,992.99
2011,11,22,06,33,993.03
2011,11,22,06,34,993.06
2011,11,22,06,35,993.13
2011,11,22,06,36,993.19
2011,11,22,06,37,993.23
2011,11,22,06,38,993.19
2011,11,22,06,39,993.26
2011,11,22,06,40,993.30
2011,11,22,06,41,993.36
2011,11,22,06,42,993.36
2011,11,22,06,43,993.33
2011,11,22,06,44,993.36
2011,11,22,06,45,993.43
2011,11,22,06,46,993.53
2011,11,22,06,47,993.60
2011,11,22,06,48,993.63
2011,11,22,06,49,993.67
2011,11,22,06,50,993.70
2011,11,22,06,51,993.77
2011,11,22,06,52,993.84
2011,11,22,06,53,993.87
2011,11,22,06,54,993.87
2011,11,22,06,55,993.94
2011,11,22,06,56,993.97
2011,11,22,06,57,994.01
2011,11,22,06,58,994.04
2011,11,22,06,59,994.11
2011,11,22,07,00,994.11
2011,11,22,07,01,994.11
2011,11,22,07,02,994.14
2011,11,22,07,03,994.18
2011,11,22,07,04,994.21
2011,11,22,07,05,994.24
2011,11,22,07,06,994.28
2011,11,22,07,07,994.31
2011,11,22,07,08,994.35
2011,11,22,07,09,994.35
2011,11,22,07,10,994.38
2011,11,22,07,11,994.41
2011,11,22,07,12,994.48
2011,11,22,07,13,994.52
2011,11,22,07,14,994.52
2011,11,22,07,15,994.41
2011,11,22,07,16,994.48
2011,11,22,07,17,994.45
2011,11,22,07,18,994.48
2011,11,22,07,19,994.52
2011,11,22,07,20,994.48
2011,11,22,07,21,994.52
2011,11,22,07,22,994.55
2011,11,22,07,23,994.58
2011,11,22,07,24,994.62
2011,11,22,07,25,994.72
2011,11,22,07,26,994.75
2011,11,22,07,27,994.75
2011,11,22,07,28,994.82
2011,11,22,07,29,994.85
2011,11,22,07,30,994.85
2011,11,22,07,31,994.92
2011,11,22,07,32,995.06
2011,11,22,07,33,995.02
2011,11,22,07,34,995.19
2011,11,22,07,35,995.19
2011,11,22,07,36,995.19
2011,11,22,07,37,995.26
2011,11,22,07,38,995.26
2011,11,22,07,39,995.40
2011,11,22,07,40,995.36
2011,11,22,07,41,995.36
2011,11,22,07,42,995.40
2011,11,22,07,43,995.36
2011,11,22,07,44,995.40
2011,11,22,07,45,995.46
2011,11,22,07,46,995.43
2011,11,22,07,47,995.43
2011,11,22,07,48,995.43
2011,11,22,07,49,995.46
2011,11,22,07,50,995.46
2011,11,22,07,51,995.50
2011,11,22,07,52,995.46
2011,11,22,07,53,995.46
2011,11,22,07,54,995.43
2011,11,22,07,55,995.46
2011,11,22,07,56,995.46
2011,11,22,07,57,995.53
2011,11,22,07,58,995.53
2011,11,22,07,59,995.56
2011,11,22,08,00,995.63
2011,11,22,08,01,995.63
2011,11,22,08,02,995.60
2011,11,22,08,03,995.63
2011,11,22,08,04,995.67
2011,11,22,08,05,995.77
2011,11,22,08,06,995.97
2011,11,22,08,07,996.01
2011,11,22,08,08,996.14
2011,11,22,08,09,996.17
2011,11,22,08,10,996.21
2011,11,22,08,11,996.21
2011,11,22,08,12,996.24
2011,11,22,08,13,996.24
2011,11,22,08,14,996.17
2011,11,22,08,15,996.07
2011,11,22,08,16,996.11
2011,11,22,08,17,996.17
2011,11,22,08,18,996.31
2011,11,22,08,19,996.41
2011,11,22,08,20,996.41
2011,11,22,08,21,996.51
2011,11,22,08,22,996.45
2011,11,22,08,23,996.45
2011,11,22,08,24,996.45
2011,11,22,08,25,996.48
2011,11,22,08,26,996.51
2011,11,22,08,27,996.61
2011,11,22,08,28,996.58
2011,11,22,08,29,996.65
2011,11,22,08,30,996.65
2011,11,22,08,31,996.72
2011,11,22,08,32,996.78
2011,11,22,08,33,996.89
2011,11,22,08,34,996.92
2011,11,22,08,35,996.89
2011,11,22,08,36,996.92
2011,11,22,08,37,996.95
2011,11,22,08,38,997.02
2011,11,22,08,39,997.02
2011,11,22,08,40,997.02
2011,11,22,08,41,996.99
2011,11,22,08,42,997.05
2011,11,22,08,43,997.09
2011,11,22,08,44,997.12
2011,11,22,08,45,997.19
2011,11,22,08,46,997.19
2011,11,22,08,47,997.33
2011,11,22,08,48,997.29
2011,11,22,08,49,997.22
2011,11,22,08,50,997.26
2011,11,22,08,51,997.19
2011,11,22,08,52,997.29
2011,11,22,08,53,997.29
2011,11,22,08,54,997.33
2011,11,22,08,55,997.36
2011,11,22,08,56,997.36
2011,11,22,08,57,997.43
2011,11,22,08,58,997.39
2011,11,22,08,59,997.43
2011,11,22,09,00,997.39
2011,11,22,09,01,997.39
2011,11,22,09,02,997.36
2011,11,22,09,03,997.43
2011,11,22,09,04,997.46
2011,11,22,09,05,997.50
2011,11,22,09,06,997.50
2011,11,22,09,07,997.36
2011,11,22,09,08,997.36
2011,11,22,09,09,997.50
2011,11,22,09,10,997.46
2011,11,22,09,11,997.50
2011,11,22,09,12,997.53
2011,11,22,09,13,997.56
2011,11,22,09,14,997.66
2011,11,22,09,15,997.60
2011,11,22,09,16,997.70
2011,11,22,09,17,997.63
2011,11,22,09,18,997.70
2011,11,22,09,19,997.66
2011,11,22,09,20,997.77
2011,11,22,09,21,997.83
2011,11,22,09,22,997.77
2011,11,22,09,23,997.80
2011,11,22,09,24,997.87
2011,11,22,09,25,997.90
2011,11,22,09,26,997.94
2011,11,22,09,27,998.00
2011,11,22,09,28,998.04
2011,11,22,09,29,998.07
2011,11,22,09,30,998.10
2011,11,22,09,31,998.14
2011,11,22,09,32,998.14
2011,11,22,09,33,998.10
2011,11,22,09,34,998.17
2011,11,22,09,35,998.10
2011,11,22,09,36,998.17
2011,11,22,09,37,998.27
2011,11,22,09,38,998.31
2011,11,22,09,39,998.27
2011,11,22,09,40,998.31
2011,11,22,09,41,998.34
2011,11,22,09,42,998.38
2011,11,22,09,43,998.41
2011,11,22,09,44,998.44
2011,11,22,09,45,998.48
2011,11,22,09,46,998.51
2011,11,22,09,47,998.54
2011,11,22,09,48,998.58
2011,11,22,09,49,998.54
2011,11,22,09,50,998.65
2011,11,22,09,51,998.65
2011,11,22,09,52,998.68
2011,11,22,09,53,998.75
2011,11,22,09,54,998.78
2011,11,22,09,55,998.82
2011,11,22,09,56,998.82
2011,11,22,09,57,998.92
2011,11,22,09,58,998.88
2011,11,22,09,59,998.92
2011,11,22,10,00,998.88
2011,11,22,10,01,998.92
2011,11,22,10,02,998.92
2011,11,22,10,03,998.95
2011,11,22,10,04,998.95
2011,11,22,10,05,999.04
2011,11,22,10,06,999.02
2011,11,22,10,07,999.02
2011,11,22,10,08,998.99
2011,11,22,10,09,999.02
2011,11,22,10,10,999.12
2011,11,22,10,11,999.15
2011,11,22,10,12,999.19
2011,11,22,10,13,999.19
2011,11,22,10,14,999.32
2011,11,22,10,15,999.32
2011,11,22,10,16,999.36
2011,11,22,10,17,999.32
2011,11,22,10,18,999.43
2011,11,22,10,19,999.36
2011,11,22,10,20,999.43
2011,11,22,10,21,999.39
2011,11,22,10,22,999.46
2011,11,22,10,23,999.49
2011,11,22,10,24,999.49
2011,11,22,10,25,999.49
2011,11,22,10,26,999.46
2011,11,22,10,27,999.49
2011,11,22,10,28,999.49
2011,11,22,10,29,999.56
2011,11,22,10,30,999.63
2011,11,22,10,31,999.66
2011,11,22,10,32,999.66
2011,11,22,10,33,999.70
2011,11,22,10,34,999.73
2011,11,22,10,35,999.87
2011,11,22,10,36,999.76
2011,11,22,10,37,999.80
2011,11,22,10,38,999.90
2011,11,22,10,39,999.83
2011,11,22,10,40,999.73
2011,11,22,10,41,999.83
2011,11,22,10,42,999.83
2011,11,22,10,43,999.87
2011,11,22,10,44,999.93
2011,11,22,10,45,999.90
2011,11,22,10,46,999.90
2011,11,22,10,47,999.93
2011,11,22,10,48,999.93
2011,11,22,10,49,999.93
2011,11,22,10,50,999.93
2011,11,22,10,51,1000.03
2011,11,22,10,52,1000.10
2011,11,22,10,53,1000.14
2011,11,22,10,54,1000.17
2011,11,22,10,55,1000.10
2011,11,22,10,56,1000.10
2011,11,22,10,57,1000.14
2011,11,22,10,58,1000.10
2011,11,22,10,59,1000.20
2011,11,22,11,00,1000.17
2011,11,22,11,01,1000.20
2011,11,22,11,02,1000.20
2011,11,22,11,03,1000.20
2011,11,22,11,04,1000.20
2011,11,22,11,05,1000.20
2011,11,22,11,06,1000.27
2011,11,22,11,07,1000.24
2011,11,22,11,08,1000.31
2011,11,22,11,09,1000.31
2011,11,22,11,10,1000.34
2011,11,22,11,11,1000.37
2011,11,22,11,12,1000.34
2011,11,22,11,13,1000.27
2011,11,22,11,14,1000.27
2011,11,22,11,15,1000.31
2011,11,22,11,16,1000.31
2011,11,22,11,17,1000.31
2011,11,22,11,18,1000.34
2011,11,22,11,19,1000.34
2011,11,22,11,20,1000.34
2011,11,22,11,21,1000.37
2011,11,22,11,22,1000.44
2011,11,22,11,23,1000.48
2011,11,22,11,24,1000.54
2011,11,22,11,25,1000.54
2011,11,22,11,26,1000.58
2011,11,22,11,27,1000.54
2011,11,22,11,28,1000.58
2011,11,22,11,29,1000.51
2011,11,22,11,30,1000.48
2011,11,22,11,31,1000.44
2011,11,22,11,32,1000.34
2011,11,22,11,33,1000.37
2011,11,22,11,34,1000.44
2011,11,22,11,35,1000.48
2011,11,22,11,36,1000.48
2011,11,22,11,37,1000.51
2011,11,22,11,38,1000.44
2011,11,22,11,39,1000.44
2011,11,22,11,40,1000.41
2011,11,22,11,41,1000.34
2011,11,22,11,42,1000.41
2011,11,22,11,43,1000.44
2011,11,22,11,44,1000.48
2011,11,22,11,45,1000.51
2011,11,22,11,46,1000.44
2011,11,22,11,47,1000.44
2011,11,22,11,48,1000.44
2011,11,22,11,49,1000.44
2011,11,22,11,50,1000.44
2011,11,22,11,51,1000.37
2011,11,22,11,52,1000.37
2011,11,22,11,53,1000.37
2011,11,22,11,54,1000.41
2011,11,22,11,55,1000.37
2011,11,22,11,56,1000.37
2011,11,22,11,57,1000.37
2011,11,22,11,58,1000.44
2011,11,22,11,59,1000.48
2011,11,22,12,00,1000.48
2011,11,22,12,01,1000.54
2011,11,22,12,02,1000.58
2011,11,22,12,03,1000.51
2011,11,22,12,04,1000.54
2011,11,22,12,05,1000.51
2011,11,22,12,06,1000.58
2011,11,22,12,07,1000.61
2011,11,22,12,08,1000.61
2011,11,22,12,09,1000.64
2011,11,22,12,10,1000.71
2011,11,22,12,11,1000.75
2011,11,22,12,12,1000.71
2011,11,22,12,13,1000.68
2011,11,22,12,14,1000.68
2011,11,22,12,15,1000.78
2011,11,22,12,16,1000.75
2011,11,22,12,17,1000.75
2011,11,22,12,18,1000.75
2011,11,22,12,19,1000.75
2011,11,22,12,20,1000.68
2011,11,22,12,21,1000.71
2011,11,22,12,22,1000.75
2011,11,22,12,23,1000.71
2011,11,22,12,24,1000.68
2011,11,22,12,25,1000.71
2011,11,22,12,26,1000.71
2011,11,22,12,27,1000.71
2011,11,22,12,28,1000.75
2011,11,22,12,29,1000.71
2011,11,22,12,30,1000.75
2011,11,22,12,31,1000.78
2011,11,22,12,32,1000.78
2011,11,22,12,33,1000.81
2011,11,22,12,34,1000.78
2011,11,22,12,35,1000.78
2011,11,22,12,36,1000.78
2011,11,22,12,37,1000.75
2011,11,22,12,38,1000.71
2011,11,22,12,39,1000.75
2011,11,22,12,40,1000.75
2011,11,22,12,41,1000.81
2011,11,22,12,42,1000.75
2011,11,22,12,43,1000.68
2011,11,22,12,44,1000.68
2011,11,22,12,45,1000.68
2011,11,22,12,46,1000.64
2011,11,22,12,47,1000.64
2011,11,22,12,48,1000.71
2011,11,22,12,49,1000.71
2011,11,22,12,50,1000.68
2011,11,22,12,51,1000.61
2011,11,22,12,52,1000.61
2011,11,22,12,53,1000.61
2011,11,22,12,54,1000.58
2011,11,22,12,55,1000.58
2011,11,22,12,56,1000.54
2011,11,22,12,57,1000.54
2011,11,22,12,58,1000.54
2011,11,22,12,59,1000.54
2011,11,22,13,00,1000.51
2011,11,22,13,01,1000.51
2011,11,22,13,02,1000.51
2011,11,22,13,03,1000.54
2011,11,22,13,04,1000.51
2011,11,22,13,05,1000.58
2011,11,22,13,06,1000.54
2011,11,22,13,07,1000.54
2011,11,22,13,08,1000.58
2011,11,22,13,09,1000.54
2011,11,22,13,10,1000.58
2011,11,22,13,11,1000.58
2011,11,22,13,12,1000.64
2011,11,22,13,13,1000.68
2011,11,22,13,14,1000.68
2011,11,22,13,15,1000.64
2011,11,22,13,16,1000.75
2011,11,22,13,17,1000.75
2011,11,22,13,18,1000.75
2011,11,22,13,19,1000.81
2011,11,22,13,20,1000.75
2011,11,22,13,21,1000.81
2011,11,22,13,22,1000.78
2011,11,22,13,23,1000.78
2011,11,22,13,24,1000.85
2011,11,22,13,25,1000.85
2011,11,22,13,26,1000.81
2011,11,22,13,27,1000.78
2011,11,22,13,28,1000.78
2011,11,22,13,29,1000.75
2011,11,22,13,30,1000.78
2011,11,22,13,31,1000.78
2011,11,22,13,32,1000.75
2011,11,22,13,33,1000.78
2011,11,22,13,34,1000.78
2011,11,22,13,35,1000.75
2011,11,22,13,36,1000.78
2011,11,22,13,37,1000.75
2011,11,22,13,38,1000.68
2011,11,22,13,39,1000.68
2011,11,22,13,40,1000.64
2011,11,22,13,41,1000.58
2011,11,22,13,42,1000.54
2011,11,22,13,43,1000.51
2011,11,22,13,44,1000.51
2011,11,22,13,45,1000.61
2011,11,22,13,46,1000.68
2011,11,22,13,47,1000.68
2011,11,22,13,48,1000.75
2011,11,22,13,49,1000.75
2011,11,22,13,50,1000.75
2011,11,22,13,51,1000.71
2011,11,22,13,52,1000.71
2011,11,22,13,53,1000.75
2011,11,22,13,54,1000.78
2011,11,22,13,55,1000.78
2011,11,22,13,56,1000.81
2011,11,22,13,57,1000.78
2011,11,22,13,58,1000.75
2011,11,22,13,59,1000.71
2011,11,22,14,00,1000.71
2011,11,22,14,01,1000.68
2011,11,22,14,02,1000.71
2011,11,22,14,03,1000.71
2011,11,22,14,04,1000.68
2011,11,22,14,05,1000.68
2011,11,22,14,06,1000.71
2011,11,22,14,07,1000.68
2011,11,22,14,08,1000.71
2011,11,22,14,09,1000.71
2011,11,22,14,10,1000.78
2011,11,22,14,11,1000.75
2011,11,22,14,12,1000.71
2011,11,22,14,13,1000.68
2011,11,22,14,14,1000.61
2011,11,22,14,15,1000.61
2011,11,22,14,16,1000.54
2011,11,22,14,17,1000.51
2011,11,22,14,18,1000.58
2011,11,22,14,19,1000.54
2011,11,22,14,20,1000.54
2011,11,22,14,21,1000.51
2011,11,22,14,22,1000.54
2011,11,22,14,23,1000.58
2011,11,22,14,24,1000.54
2011,11,22,14,25,1000.54
2011,11,22,14,26,1000.58
2011,11,22,14,27,1000.54
2011,11,22,14,28,1000.51
2011,11,22,14,29,1000.51
2011,11,22,14,30,1000.54
2011,11,22,14,31,1000.54
2011,11,22,14,32,1000.54
2011,11,22,14,33,1000.54
2011,11,22,14,34,1000.54
2011,11,22,14,35,1000.51
2011,11,22,14,36,1000.48
2011,11,22,14,37,1000.41
2011,11,22,14,38,1000.37
2011,11,22,14,39,1000.34
2011,11,22,14,40,1000.34
2011,11,22,14,41,1000.27
2011,11,22,14,42,1000.24
2011,11,22,14,43,1000.24
2011,11,22,14,44,1000.20
2011,11,22,14,45,1000.20
2011,11,22,14,46,1000.20
2011,11,22,14,47,1000.24
2011,11,22,14,48,1000.17
2011,11,22,14,49,1000.17
2011,11,22,14,50,1000.24
2011,11,22,14,51,1000.20
2011,11,22,14,52,1000.20
2011,11,22,14,53,1000.17
2011,11,22,14,54,1000.20
2011,11,22,14,55,1000.20
2011,11,22,14,56,1000.17
2011,11,22,14,57,1000.24
2011,11,22,14,58,1000.17
2011,11,22,14,59,1000.14
2011,11,22,15,00,1000.10
2011,11,22,15,01,1000.07
2011,11,22,15,02,1000.07
2011,11,22,15,03,1000.03
2011,11,22,15,04,1000.00
2011,11,22,15,05,1000.03
2011,11,22,15,06,1000.03
2011,11,22,15,07,1000.00
2011,11,22,15,08,999.97
2011,11,22,15,09,1000.00
2011,11,22,15,10,1000.00
2011,11,22,15,11,999.97
2011,11,22,15,12,999.97
2011,11,22,15,13,1000.00
2011,11,22,15,14,1000.00
2011,11,22,15,15,1000.00
2011,11,22,15,16,1000.00
2011,11,22,15,17,1000.00
2011,11,22,15,18,999.97
2011,11,22,15,19,1000.00
2011,11,22,15,20,1000.00
2011,11,22,15,21,1000.03
2011,11,22,15,22,1000.07
2011,11,22,15,23,1000.03
2011,11,22,15,24,1000.03
2011,11,22,15,25,1000.07
2011,11,22,15,26,1000.10
2011,11,22,15,27,1000.14
2011,11,22,15,28,1000.10
2011,11,22,15,29,1000.10
2011,11,22,15,30,1000.07
2011,11,22,15,31,1000.07
2011,11,22,15,32,1000.07
2011,11,22,15,33,1000.14
2011,11,22,15,34,1000.14
2011,11,22,15,35,1000.14
2011,11,22,15,36,1000.14
2011,11,22,15,37,1000.07
2011,11,22,15,38,1000.07
2011,11,22,15,39,1000.00
2011,11,22,15,40,1000.00
2011,11,22,15,41,999.97
2011,11,22,15,42,1000.03
2011,11,22,15,43,1000.07
2011,11,22,15,44,1000.10
2011,11,22,15,45,1000.07
2011,11,22,15,46,1000.07
2011,11,22,15,47,1000.03
2011,11,22,15,48,1000.03
2011,11,22,15,49,1000.07
2011,11,22,15,50,1000.03
2011,11,22,15,51,1000.07
2011,11,22,15,52,1000.10
2011,11,22,15,53,1000.10
2011,11,22,15,54,1000.03
2011,11,22,15,55,999.97
2011,11,22,15,56,999.97
2011,11,22,15,57,999.97
2011,11,22,15,58,999.93
2011,11,22,15,59,999.90
2011,11,22,16,00,999.87
2011,11,22,16,01,999.80
2011,11,22,16,02,999.76
2011,11,22,16,03,999.76
2011,11,22,16,04,999.80
2011,11,22,16,05,999.73
2011,11,22,16,06,999.66
2011,11,22,16,07,999.70
2011,11,22,16,08,999.59
2011,11,22,16,09,999.53
2011,11,22,16,10,999.53
2011,11,22,16,11,999.49
2011,11,22,16,12,999.46
2011,11,22,16,13,999.46
2011,11,22,16,14,999.46
2011,11,22,16,15,999.46
2011,11,22,16,16,999.46
2011,11,22,16,17,999.49
2011,11,22,16,18,999.53
2011,11,22,16,19,999.49
2011,11,22,16,20,999.49
2011,11,22,16,21,999.46
2011,11,22,16,22,999.46
2011,11,22,16,23,999.46